Location: Lecco
(45.8566°N, 9.3977°E)
Time: 04:19:46
(UTC+02:00)

Transit 4A - Pass Details

Date: 21 August 2020
Orbit: 863 x 982 km, 66.8° (Epoch: 23 September)

Event Time Altitude Azimuth Distance (km) Brightness Sun altitude
Rises 10:56:40 0° 279° (W) 3,558 10.6 43.7°
Reaches altitude 10° 11:00:24 10° 302° (WNW) 2,644 9.9 44.2°
Maximum altitude 11:03:52 15° 336° (NNW) 2,312 9.8 44.7°
Drops below altitude 10° 11:07:23 10° 11° (N) 2,693 10.2 45.2°
Sets 11:11:16 0° 34° (NNE) 3,663 11.0 45.7°
